CAPE
1 6 6 1 3 0 0 0 0 0 0 0 0 0 0 0 0 0 0 0 0 0 0 0 0 0 0 0 0 0 0 0 0 0 0 0 1 0 0 0 0 0 0 0
20 5 5 7 7 1 3 0 0 0 0 0 0 0 0 0 0 0 0 0 0 0 0 0 0 0 0 0 0 0 0 0 0 0 0 0 0 0 0 0 0 0 0 0
2 1 18 44 9 0 3 0 0 0 0 1 0 0 0 0 0 0 0 0 0 0 0 0 0 0 0 0 0 0 0 0 0 0 0 0 0 0 0 0 0 0 0 0
5 0 8 3 2 0 2 1 0 1 0 1 0 0 0 0 0 0 0 0 0 0 0 0 0 0 0 0 0 0 0 0 0 0 0 0 0 0 0 0 0 0 0 0
0 7 15 3 1 0 0 0 10 4 0 0 0 0 0 0 0 0 0 0 0 0 0 0 0 0 0 0 0 7 14 12 1 0 0 0 0 0 0 0 0 0 0 0
1 1 3 6 5 0 0 0 0 0 0 0 0 0 0 0 0 0 0 0 0 0 0 0 0 0 0 0 0 10 23 38 29 0 0 0 0 0 0 0 0 0 0 0
0 0 0 0 0 0 0 0 0 0 0 0 0 0 0 0 0 0 0 0 0 0 0 0 0 0 0 0 0 23 19 44 55 31 0 0 0 0 0 0 0 0 0 0
0 0 0 1 0 0 0 0 0 0 0 0 0 0 0 0 0 0 0 0 0 0 0 0 0 0 0 0 0 10 29 39 35 26 0 0 0 0 0 0 0 0 0 0
0 0 1 0 0 0 0 1 1 0 0 0 0 0 0 0 0 0 0 0 0 0 0 0 0 0 0 0 0 0 0 0 0 0 0 0 0 0 0 0 0 0 0 0
1 0 0 2 0 1 0 0 0 0 0 0 0 0 0 0 0 0 0 0 0 0 0 0 0 0 0 0 0 0 0 0 0 0 0 0 0 0 0 0 0 0 0 0
2 0 0 0 0 0 0 0 0 1 0 0 0 0 0 0 0 0 0 0 0 0 0 0 0 0 0 0 0 0 0 0 0 0 0 0 0 0 0 0 0 0 0 0
1 1 0 0 1 0 0 1 0 0 0 0 0 0 0 0 0 0 0 0 0 0 0 0 0 0 0 0 0 0 0 0 0 0 0 0 0 0 0 0 0 0 0 0
1 0 0 0 1 1 1 0 1 0 1 0 0 0 0 0 0 0 0 0 0 0 0 0 0 0 0 0 0 0 0 0 0 0 0 0 0 0 0 0 0 0 0 0
0 0 0 0 0 0 0 1 0 1 0 0 0 0 0 0 0 0 0 0 0 0 0 0 0 0 0 0 0 0 0 0 0 0 0 0 0 0 0 0 0 0 0 0
0 0 0 0 0 0 0 0 0 0 0 0 0 0 0 0 0 0 0 0 0 0 0 0 0 0 0 0 0 0 0 0 0 0 0 0 0 0 0 0 0 0 0 0
0 1 0 0 0 1 0 0 1 0 0 1 0 0 0 0 0 0 0 0 0 0 0 0 0 0 0 0 0 0 0 0 0 0 0 0 0 0 0 0 0 0 0 0
0 0 0 0 0 0 0 0 0 0 0 0 1 0 0 0 0 0 0 0 0 0 0 0 0 0 0 0 0 0 0 0 0 0 0 0 0 0 0 0 0 0 0 0
0 0 0 0 0 0 0 0 0 0 0 0 0 0 1 1 0 0 0 0 0 0 0 0 0 0 0 0 0 0 0 0 0 0 0 0 0 0 0 0 0 0 0 0
1 0 0 0 0 0 0 0 0 0 0 0 0 0 0 0 0 0 0 0 0 0 0 0 0 0 0 0 0 0 0 0 0 0 0 0 0 0 0 0 0 0 0 0
1 0 0 0 0 0 0 0 0 0 0 0 0 0 0 0 0 0 0 0 0 0 0 0 0 0 0 0 0 0 0 0 0 0 0 0 0 0 0 0 0 0 0 0
0 1 0 0 0 0 0 0 0 0 0 0 0 0 0 0 0 0 0 0 0 0 0 0 0 0 0 0 0 0 0 0 0 0 0 0 0 0 0 0 0 0 0 0
0 0 0 0 0 0 0 0 0 0 0 0 0 0 0 0 0 0 0 0 0 0 0 0 0 0 0 0 0 0 0 0 0 0 0 0 0 0 0 0 0 0 0 0
0 0 0 0 0 0 0 0 0 0 0 0 0 0 0 0 0 0 0 0 0 0 0 0 0 0 0 0 0 0 0 0 0 0 0 0 0 0 0 0 0 0 0 0
0 0 0 0 0 0 0 0 0 0 0 0 0 0 0 0 0 0 0 0 0 0 0 0 0 0 0 0 0 0 0 0 0 0 0 0 0 0 0 0 0 0 0 0
0 0 0 0 0 0 0 0 0 0 0 0 0 0 0 0 0 0 0 0 0 0 0 0 0 0 0 0 0 0 0 0 0 0 0 0 0 0 0 0 0 0 0 0
0 0 0 0 0 0 0 0 0 0 0 0 0 0 0 0 0 0 0 0 0 0 0 0 0 0 0 0 0 0 0 0 0 0 0 0 0 0 0 0 0 0 0 0
CIN
-0 -0 -0 -1 -1 -0 -0 -0 -0 -0 -0 -0 -0 -0 -0 -0 -0 -0 -0 -0 -0 -0 -0 -0 -0 -0 -0 -0 -0 -0 -0 -0 -0 -0 -0 -0 -0 -0 -0 -0 -0 -0 -0 -0
-0 -0 -0 -1 -0 -0 -0 -0 -0 -0 -0 -2 -0 -0 -0 -12 -0 -0 -0 -0 -0 -0 -0 -0 -0 -0 -0 -0 -0 -0 -0 -0 -0 -0 -0 -0 -0 -0 -0 -0 -0 -0 -0 -0
-0 -0 -0 -0 -0 -1 -0 -0 -0 -0 -4 -6 -0 -0 -0 -0 -0 -0 -0 -0 -0 -0 -0 -0 -0 -0 -0 -0 -0 -0 -0 -0 -0 -0 -0 -0 -0 -0 -0 -0 -0 -0 -0 -0
-0 -1 -1 -0 -1 -0 -0 -6 -0 -0 -0 -0 -0 -0 -0 -0 -0 -0 -0 -0 -0 -0 -0 -0 -0 -0 -0 -0 -0 -0 -49 -0 -0 -0 -0 -0 -0 -0 -0 -0 -0 -0 -0 -0
-0 -1 -0 -0 -0 -0 -0 -0 -5 -0 -0 -0 -0 -0 -0 -0 -0 -0 -0 -0 -0 -0 -0 -0 -0 -0 -0 -0 -0 -249 -185 -195 -52 -0 -0 -0 -0 -0 -0 -0 -0 -0 -0 -0
-0 -0 -0 -2 -2 -0 -0 -0 -0 -0 -0 -0 -0 -0 -0 -0 -0 -0 -0 -0 -0 -0 -0 -0 -0 -0 -0 -0 -0 -255 -202 -165 -160 -0 -3 -0 -0 -0 -0 -0 -0 -0 -0 -0
-0 -0 -0 -0 -0 -0 -0 -0 -0 -0 -0 -0 -0 -0 -0 -0 -0 -0 -0 -0 -0 -0 -0 -0 -0 -0 -0 -0 -0 -266 -232 -177 -154 -166 -0 -0 -0 -0 -0 -0 -0 -0 -0 -0
-0 -0 -0 -0 -0 -0 -0 -0 -0 -0 -0 -0 -0 -0 -0 -0 -0 -0 -0 -0 -0 -0 -0 -0 -0 -0 -0 -0 -0 -293 -243 -210 -180 -183 -0 -0 -0 -0 -0 -0 -0 -0 -0 -0
-0 -0 -0 -0 -0 -0 -0 -0 -0 -0 -0 -0 -0 -0 -0 -0 -0 -0 -0 -0 -0 -0 -0 -0 -0 -0 -0 -0 -0 -0 -0 -0 -0 -0 -0 -0 -0 -0 -0 -0 -0 -0 -0 -0
-0 -0 -0 -0 -0 -0 -0 -0 -0 -0 -0 -0 -0 -0 -0 -0 -0 -0 -0 -0 -0 -0 -0 -0 -0 -0 -0 -0 -0 -0 -0 -0 -0 -0 -0 -0 -0 -0 -0 -0 -0 -0 -0 -0
-0 -0 -0 -0 -0 -0 -0 -0 -0 -0 -0 -0 -0 -0 -0 -0 -0 -0 -0 -0 -0 -0 -0 -0 -0 -0 -0 -0 -0 -0 -0 -0 -0 -0 -0 -0 -0 -0 -0 -0 -0 -0 -0 -0
-0 -0 -0 -0 -0 -0 -0 -0 -0 -0 -0 -0 -0 -0 -0 -0 -0 -0 -0 -0 -0 -0 -0 -0 -0 -0 -0 -0 -0 -0 -0 -0 -0 -0 -0 -0 -0 -0 -0 -0 -0 -0 -0 -0
-0 -0 -0 -0 -0 -0 -0 -0 -0 -0 -0 -0 -0 -0 -0 -0 -0 -0 -0 -0 -0 -0 -0 -0 -0 -0 -0 -0 -0 -0 -0 -0 -0 -0 -0 -0 -0 -0 -0 -0 -0 -0 -0 -0
-0 -0 -0 -0 -0 -0 -0 -0 -0 -0 -0 -0 -0 -0 -0 -0 -0 -0 -0 -0 -0 -0 -0 -0 -0 -0 -0 -0 -0 -0 -0 -0 -0 -0 -0 -0 -0 -0 -0 -0 -0 -0 -0 -0
-0 -0 -0 -0 -0 -0 -0 -0 -0 -0 -0 -0 -0 -0 -0 -0 -0 -0 -0 -0 -0 -0 -0 -0 -0 -0 -0 -0 -0 -0 -0 -0 -0 -0 -0 -0 -0 -0 -0 -0 -0 -0 -0 -0
-0 -0 -0 -0 -0 -0 -0 -0 -0 -0 -0 -0 -0 -0 -0 -0 -0 -0 -0 -0 -0 -0 -0 -0 -0 -0 -0 -0 -0 -0 -0 -0 -0 -0 -0 -0 -0 -0 -0 -0 -0 -0 -0 -0
-0 -0 -0 -0 -0 -0 -0 -0 -0 -0 -0 -0 -0 -0 -0 -0 -0 -0 -0 -0 -0 -0 -0 -0 -0 -0 -0 -0 -0 -0 -0 -0 -0 -0 -0 -0 -0 -0 -0 -0 -0 -0 -0 -0
-0 -0 -0 -0 -0 -0 -0 -0 -0 -0 -0 -0 -0 -0 -1 -0 -0 -0 -0 -0 -0 -0 -0 -0 -0 -0 -0 -0 -0 -0 -0 -0 -0 -0 -0 -0 -0 -0 -0 -0 -0 -0 -0 -0
-0 -0 -0 -0 -0 -0 -0 -0 -0 -0 -0 -0 -0 -0 -0 -0 -0 -0 -0 -0 -0 -0 -0 -0 -0 -0 -0 -0 -0 -0 -0 -0 -0 -0 -0 -0 -0 -0 -0 -0 -0 -0 -0 -0
-0 -0 -0 -0 -0 -0 -0 -0 -0 -0 -0 -0 -0 -0 -0 -0 -0 -0 -0 -0 -0 -0 -0 -0 -0 -0 -0 -0 -0 -0 -0 -0 -0 -0 -0 -0 -0 -0 -0 -0 -0 -0 -0 -0
-0 -0 -0 -0 -0 -0 -0 -0 -0 -0 -0 -0 -0 -0 -0 -0 -0 -0 -0 -0 -0 -0 -0 -0 -0 -0 -0 -0 -0 -0 -0 -0 -0 -0 -0 -0 -0 -0 -0 -0 -0 -0 -0 -0
-0 -0 -0 -0 -0 -0 -0 -0 -0 -0 -0 -0 -0 -0 -0 -0 -0 -0 -0 -0 -0 -0 -0 -0 -0 -0 -0 -0 -0 -0 -0 -0 -0 -0 -0 -0 -0 -0 -0 -0 -0 -0 -0 -0
-0 -0 -0 -0 -0 -0 -0 -0 -0 -0 -0 -0 -0 -0 -0 -0 -0 -0 -0 -0 -0 -0 -0 -0 -0 -0 -0 -0 -0 -0 -0 -0 -0 -0 -0 -0 -0 -0 -0 -0 -0 -0 -0 -0
-0 -0 -0 -0 -0 -0 -0 -0 -0 -0 -0 -0 -0 -0 -0 -0 -0 -0 -0 -0 -0 -0 -0 -0 -0 -0 -0 -0 -0 -0 -0 -0 -0 -0 -0 -0 -0 -0 -0 -0 -0 -0 -0 -0
-0 -0 -0 -0 -0 -0 -0 -0 -0 -0 -0 -0 -0 -0 -0 -0 -0 -0 -0 -0 -0 -0 -0 -0 -0 -0 -0 -0 -0 -0 -0 -0 -0 -0 -0 -0 -0 -0 -0 -0 -0 -0 -0 -0
-0 -0 -0 -0 -0 -0 -0 -0 -0 -0 -0 -0 -0 -0 -0 -0 -0 -0 -0 -0 -0 -0 -0 -0 -0 -0 -0 -0 -0 -0 -0 -0 -0 -0 -0 -0 -0 -0 -0 -0 -0 -0 -0 -0
Wind_Speed
53 52 54 66 57 49 42 48 54 52 43 42 44 45 43 27 32 31 25 20 17 16 14 12 12 11 12 12 12 12 11 10 8 7 4 2 1 3 6 9 10 11 12 13
52 62 56 44 46 55 47 49 56 45 45 41 43 45 45 30 34 36 26 22 19 17 15 14 13 13 12 12 11 11 12 10 9 6 3 2 1 3 5 7 9 10 11 12
51 55 42 50 49 43 44 51 49 47 36 47 42 47 46 42 34 36 37 27 22 19 17 16 15 14 13 13 13 12 11 10 9 6 4 2 4 6 7 6 7 8 9 11
47 40 50 46 51 46 47 46 46 41 40 45 42 46 48 42 36 35 38 32 23 21 20 18 16 16 15 14 13 12 11 11 9 8 6 6 5 6 7 4 6 6 8 10
34 34 43 46 50 42 41 34 41 40 35 35 43 43 44 43 45 36 35 37 27 22 21 19 17 17 16 15 14 13 12 11 10 9 7 7 7 6 6 5 5 5 7 8
23 25 29 35 33 35 26 27 29 33 36 43 42 44 47 38 35 36 33 31 31 26 21 19 18 17 17 16 15 14 14 13 12 11 9 9 8 7 7 6 6 5 5 7
23 26 25 26 33 29 30 31 35 41 42 44 38 41 52 41 35 33 32 31 31 33 25 22 20 19 21 18 17 16 16 15 13 13 11 10 9 8 8 7 7 6 6 6
27 31 29 26 32 35 33 32 37 42 43 39 27 48 50 54 34 38 33 28 32 29 30 25 21 20 21 21 19 17 16 16 15 14 13 12 10 11 11 9 8 7 7 5
24 25 23 19 20 26 31 34 28 33 31 38 38 38 34 37 37 35 35 25 25 27 27 26 23 21 21 20 19 19 18 17 16 15 14 13 12 12 12 11 9 7 6 5
17 22 18 21 19 22 25 21 29 26 36 42 40 39 39 29 39 36 32 29 27 25 28 27 23 22 22 20 19 20 19 19 17 16 15 14 14 13 12 11 9 7 6 4
19 20 21 20 25 28 24 25 24 25 26 34 36 35 26 35 34 35 36 32 28 25 21 22 23 22 22 21 21 21 20 19 17 16 15 15 14 13 11 10 7 6 5 4
18 19 24 27 22 24 24 27 26 29 30 30 29 29 23 22 22 25 28 26 25 21 21 23 25 22 20 22 22 21 20 18 18 17 16 16 14 11 10 9 7 6 6 5
18 23 24 25 29 26 30 28 28 23 25 31 36 28 21 19 20 21 21 21 20 21 19 23 23 21 21 19 21 20 20 18 17 16 16 15 13 11 10 8 7 6 6 6
21 23 26 29 27 27 33 27 25 28 31 29 32 29 24 21 20 19 19 18 18 17 15 16 16 14 18 16 20 19 18 17 16 15 14 14 12 11 10 8 8 8 7 6
22 28 24 22 21 24 27 28 26 33 34 32 31 33 26 24 22 19 17 16 16 18 18 19 19 17 17 16 17 17 16 15 15 15 14 13 11 10 9 9 9 9 7 7
19 25 22 25 22 23 27 24 29 32 35 38 39 37 25 24 22 22 19 16 15 15 14 14 14 15 16 15 15 15 14 13 14 14 14 12 11 10 9 10 10 8 8 7
20 21 23 28 22 23 29 28 28 29 31 32 36 36 37 34 33 25 20 19 18 16 16 16 17 17 15 16 15 15 14 13 14 14 13 12 11 11 11 10 9 9 8 7
18 19 21 23 21 30 21 20 22 29 27 29 36 33 30 32 35 33 28 26 25 24 23 22 21 18 17 16 16 15 14 13 13 13 13 12 12 12 10 9 9 9 8 8
18 19 20 24 26 26 23 23 22 23 22 23 27 27 28 29 32 33 26 27 29 29 27 26 24 21 18 15 14 14 14 14 14 14 14 12 11 10 10 10 9 9 8 8
17 18 20 21 24 28 24 20 22 23 27 23 23 24 25 26 31 28 29 32 33 32 32 33 32 27 21 18 14 14 14 13 13 12 12 11 10 10 11 10 9 9 8 8
19 19 21 21 25 23 20 21 20 26 26 22 22 24 25 25 26 30 31 32 32 33 34 34 35 35 30 21 17 16 15 15 15 13 13 12 12 11 11 11 10 9 9 9
21 22 22 21 25 28 19 18 23 20 20 20 21 23 25 25 28 29 30 30 30 32 32 32 33 33 30 25 21 20 18 18 16 15 14 13 12 12 11 10 11 10 10 10
24 21 23 22 23 19 20 21 21 18 20 22 23 25 26 27 27 30 31 30 29 30 30 30 31 31 28 25 22 21 19 17 16 16 15 13 12 11 10 10 10 10 9 10
23 22 24 25 22 24 24 22 22 23 25 26 27 28 29 30 31 32 31 31 31 30 30 29 28 27 25 24 24 24 20 17 16 15 14 13 12 11 10 9 7 8 9 12
25 24 26 28 30 30 29 27 26 27 27 28 28 29 30 31 33 33 33 32 31 30 29 27 26 25 23 22 21 20 16 13 13 13 12 12 11 9 8 8 7 9 13 13
22 25 27 30 26 26 24 21 24 27 29 29 29 29 28 29 33 32 32 30 31 29 27 25 23 21 20 19 17 17 16 12 11 12 12 12 10 10 10 8 10 12 11 13
Wind_Direction
217 223 220 220 223 225 230 230 231 233 233 240 239 238 238 239 236 236 235 234 234 233 225 214 206 195 173 169 167 168 165 165 161 161 156 137 67 29 12 8 10 14 22 19
219 224 223 221 221 225 230 232 230 234 237 239 241 242 238 239 239 238 235 233 233 233 224 217 204 199 190 183 182 177 175 176 176 183 193 272 56 358 356 2 6 8 13 11
222 225 224 218 218 222 228 231 230 230 238 238 243 242 238 238 241 239 238 237 236 228 221 217 209 202 207 194 190 188 189 186 187 194 198 285 330 343 334 346 352 2 8 7
222 225 216 217 221 224 231 232 231 230 236 235 231 243 237 235 239 239 237 240 230 228 229 222 215 209 201 205 206 205 200 195 199 197 213 220 256 292 313 328 348 359 5 0
218 221 208 214 217 219 233 235 232 233 237 235 233 241 239 235 238 238 239 239 242 229 225 219 214 211 216 218 211 214 212 207 209 212 224 234 267 290 314 324 332 346 356 1
232 233 215 223 219 218 226 228 236 235 238 238 232 234 238 235 230 238 239 239 241 240 225 221 222 229 230 225 225 218 215 217 221 219 232 232 244 273 292 300 307 319 339 348
234 231 233 223 217 222 231 228 235 233 235 240 236 238 236 240 244 244 239 237 237 241 239 229 223 226 236 228 226 223 221 226 230 225 238 242 250 262 273 276 291 300 317 322
228 221 223 233 224 226 227 233 236 232 233 236 237 240 240 241 251 250 249 239 237 236 238 237 226 227 232 234 228 228 229 235 234 238 245 253 253 266 278 276 276 287 302 310
234 234 237 235 231 226 233 237 243 244 245 238 242 252 259 247 247 253 251 242 233 237 231 234 235 234 235 234 233 236 239 245 245 246 253 257 262 269 273 274 276 284 295 307
248 235 243 237 231 242 238 234 239 248 238 240 243 250 251 251 248 248 249 249 250 250 244 242 237 240 245 244 246 249 248 250 252 249 255 259 265 272 278 272 273 277 295 300
250 250 240 239 241 230 236 240 248 250 251 244 242 251 266 256 255 251 251 252 252 255 254 243 247 252 247 248 252 253 253 253 252 253 259 263 268 272 270 266 262 272 285 293
270 261 243 244 257 250 249 247 248 249 249 250 248 251 275 274 272 266 264 258 256 259 258 252 254 256 251 253 256 256 255 252 254 257 261 266 268 267 266 264 263 268 278 284
262 252 248 252 253 255 249 252 251 256 259 252 245 252 278 286 282 278 276 266 260 257 262 257 259 258 255 255 257 256 256 255 256 260 262 265 264 263 264 262 261 272 279 288
260 262 258 253 257 257 253 255 257 256 258 256 252 258 271 285 290 289 285 282 264 259 260 260 263 265 262 259 256 258 257 256 255 257 259 260 259 257 260 265 272 280 284 286
267 257 265 274 282 274 266 259 258 256 256 260 260 260 270 277 283 296 296 289 279 269 266 265 265 265 262 262 261 261 259 256 255 256 257 257 259 262 266 270 277 284 285 287
280 261 268 269 285 284 269 271 261 260 262 261 260 259 275 275 286 289 298 300 293 283 282 275 272 270 270 267 262 260 256 252 253 255 258 258 256 260 264 274 279 283 285 283
279 272 270 264 282 282 272 269 268 266 264 265 262 266 267 273 273 283 291 293 293 292 291 288 282 279 273 270 268 264 263 260 257 257 257 256 258 261 270 276 280 281 278 279
288 282 273 270 275 264 285 291 290 270 276 276 267 273 277 275 274 278 283 284 285 288 290 290 289 287 281 279 275 273 268 261 256 254 253 254 262 266 270 275 278 280 278 269
288 283 280 274 271 278 284 287 288 285 286 294 285 285 284 285 281 278 288 288 284 285 288 287 287 286 286 280 276 270 263 256 254 253 254 254 254 260 270 277 278 283 278 274
300 293 288 281 276 272 281 303 298 285 283 294 296 295 295 294 278 285 291 287 286 285 285 282 283 283 281 281 276 266 259 255 249 246 248 254 258 265 272 277 278 285 281 278
289 292 285 284 278 285 303 308 311 283 284 302 299 296 295 295 294 293 294 290 289 288 285 283 282 278 280 277 270 263 257 250 259 258 262 261 260 268 278 283 287 284 285 287
290 285 286 289 284 280 311 314 294 308 312 310 310 310 301 303 300 302 300 299 298 294 291 287 285 283 279 277 268 263 256 266 264 263 263 263 267 275 282 284 291 289 289 286
286 294 290 289 292 306 311 310 313 318 312 311 311 311 308 307 308 306 305 306 305 304 303 298 289 286 284 281 273 267 265 263 265 262 261 264 269 277 280 283 288 291 289 285
292 300 293 298 302 302 304 312 312 307 304 307 307 304 302 300 302 304 305 306 307 307 306 304 298 292 288 284 279 274 271 266 262 258 260 262 266 274 280 286 285 286 286 288
294 295 292 291 294 299 302 305 310 308 307 306 306 305 304 302 299 300 302 302 304 306 307 308 302 298 296 293 285 282 275 267 259 256 257 260 269 273 279 292 298 297 299 299
297 291 287 289 301 300 306 319 320 316 313 309 305 303 306 307 303 304 303 305 302 305 307 309 310 307 306 302 296 290 283 266 258 260 264 269 275 283 291 300 307 318 321 319